Tracking 28794 objects as of 19-Apr-2024
HD Live streaming from Space Station
objects crossing your sky now

FENGYUN 1C DEB

Track FENGYUN 1C DEB now!
10-day predictions


NORAD ID: 31209
Int'l Code: 1999-025BKP
Perigee: 787.1 km
Apogee: 823.6 km
Inclination: 98.9 °
Period: 100.8 minutes
Semi major axis: 7176 km
RCS: 0.0096 m2 (small)
Launch date: May 10, 1999
Source: People's Republic of China (PRC)
Launch site: Taiyaun Space Center, China (TSC)

Note: This is SATELLITE DEBRIS
Your satellite tracking list
Your tracking list is empty




NASA's NSSDC Master Catalog

Two Line Element Set (TLE):
1 31209U 99025BKP 24107.42991891  .00011070  00000-0  44530-2 0  9994
2 31209  98.9008 177.3218 0025394 327.8304  32.1326 14.28068343880833
Source of the keplerian elements: AFSPC